QB50P1

Last updated on Mon Sep 07 2026 00:03:13 GMT+0000 (Coordinated Universal Time)

1 40025U 14033R 26249.57954323 .00004702 00000+0 22601-3 0 9999 2 40025 98.0978 266.5068 0007187 314.7382 45.3265 15.19354084665381
UTC large
Height (km)
Speed (km/s)
/
Latitude / Longitude
Inclination (degrees)
Orbital Period (minutes)
Azimuth
Elevation
Range (km)
Doppler Factor

Next 0 passes for location: London (51.5072 / 0.1276)

No passes found over London.
QB50P1